H1 CPF 2 NER 2020 12 18 9 353 01 glonass122 H2 1004103 9122 37139 2020 12 18 0 0 0 2020 12 21 23 45 0 900 1 1 0 0 0 1 H9 10 0 59201 0.00000 0 25242887.245 -1468573.882 -3883102.444 10 0 59201 900.00000 0 24566298.620 -1482658.075 -6982159.703 10 0 59201 1800.00000 0 23528683.161 -1361865.095 -9946746.080 10 0 59201 2700.00000 0 22166114.605 -1062918.176 -12719746.428 10 0 59201 3600.00000 0 20524632.446 -550604.464 -15247686.737 10 0 59201 4500.00000 0 18658396.297 200502.996 -17481743.405 10 0 59201 5400.00000 0 16627523.198 1204728.847 -19378669.870 10 0 59201 6300.00000 0 14495694.727 2464440.513 -20901624.409 10 0 59201 7200.00000 0 12327630.353 3969692.237 -22020884.076 10 0 59201 8100.00000 0 10186529.130 5698385.830 -22714431.339 10 0 59201 9000.00000 0 8131583.635 7616945.257 -22968401.634 10 0 59201 9900.00000 0 6215667.936 9681481.257 -22777381.835 10 0 59201 10800.00000 0 4483295.040 11839402.161 -22144551.875 10 0 59201 11700.00000 0 2968929.176 14031408.223 -21081664.039 10 0 59201 12600.00000 0 1695724.603 16193790.129 -19608857.165 10 0 59201 13500.00000 0 674745.566 18260938.670 -17754305.960 10 0 59201 14400.00000 0 -95297.433 20167962.426 -15553708.822 10 0 59201 15300.00000 0 -627781.340 21853304.136 -13049621.159 10 0 59201 16200.00000 0 -947383.116 23261245.083 -10290644.727 10 0 59201 17100.00000 0 -1088802.599 24344190.133 -7330487.184 10 0 59201 18000.00000 0 -1095048.788 25064634.132 -4226909.744 10 0 59201 18900.00000 0 -1015362.413 25396723.350 -1040583.972 10 0 59201 19800.00000 0 -902864.363 25327342.547 2166118.363 10 0 59201 20700.00000 0 -812032.334 24856678.731 5330376.119 10 0 59201 21600.00000 0 -796116.356 23998235.621 8390182.701 10 0 59201 22500.00000 0 -904606.942 22778297.206 11285594.804 10 0 59201 23400.00000 0 -1180867.450 21234863.323 13959937.900 10 0 59201 24300.00000 0 -1660034.898 19416103.669 16360941.688 10 0 59201 25200.00000 0 -2367281.242 17378397.881 18441780.652 10 0 59201 26100.00000 0 -3316510.780 15184047.351 20161997.564 10 0 59201 27000.00000 0 -4509549.598 12898758.277 21488291.087 10 0 59201 27900.00000 0 -5935861.025 10589004.593 22395152.366 10 0 59201 28800.00000 0 -7572797.734 8319383.686 22865339.260 10 0 59201 29700.00000 0 -9386377.851 6150076.794 22890181.066 10 0 59201 30600.00000 0 -11332550.033 4134520.194 22469710.346 10 0 59201 31500.00000 0 -13358891.895 2317383.144 21612622.295 10 0 59201 32400.00000 0 -15406668.506 732934.279 20336065.577 10 0 59201 33300.00000 0 -17413163.281 -596139.077 18665271.649 10 0 59201 34200.00000 0 -19314183.079 -1659413.759 16633032.510 10 0 59201 35100.00000 0 -21046633.120 -2458892.086 14279039.188 10 0 59201 36000.00000 0 -22551055.407 -3008639.562 11649095.397 10 0 59201 36900.00000 0 -23774026.663 -3333918.278 8794222.575 10 0 59201 37800.00000 0 -24670318.390 -3469855.717 5769673.906 10 0 59201 38700.00000 0 -25204731.916 -3459707.084 2633875.922 10 0 59201 39600.00000 0 -25353534.873 -3352785.226 -552682.751 10 0 59201 40500.00000 0 -25105442.004 -3202145.131 -3728595.648 10 0 59201 41400.00000 0 -24462101.553 -3062119.340 -6832695.657 10 0 59201 42300.00000 0 -23438068.390 -2985806.118 -9805205.009 10 0 59201 43200.00000 0 -22060265.434 -3022613.866 -12588858.450 10 0 59201 44100.00000 0 -20366955.200 -3215962.770 -15129980.449 10 0 59201 45000.00000 0 -18406262.755 -3601238.390 -17379498.010 10 0 59201 45900.00000 0 -16234309.093 -4204081.906 -19293871.672 10 0 59201 46800.00000 0 -13913029.477 -5039088.549 -20835928.457 10 0 59201 47700.00000 0 -11507764.102 -6108969.609 -21975581.655 10 0 59201 48600.00000 0 -9084717.780 -7404215.202 -22690423.976 10 0 59201 49500.00000 0 -6708391.105 -8903275.038 -22966182.165 10 0 59201 50400.00000 0 -4439087.547 -10573253.562 -22797023.015 10 0 59201 51300.00000 0 -2330598.544 -12371094.911 -22185702.872 10 0 59201 52200.00000 0 -428162.415 -14245212.758 -21143555.048 10 0 59201 53100.00000 0 1233217.260 -16137501.098 -19690312.213 10 0 59201 54000.00000 0 2630022.221 -17985645.356 -17853763.830 10 0 59201 54900.00000 0 3750984.655 -19725639.453 -15669251.848 10 0 59201 55800.00000 0 4597332.250 -21294404.314 -13179011.474 10 0 59201 56700.00000 0 5182500.477 -22632397.546 -10431367.335 10 0 59201 57600.00000 0 5531322.117 -23686102.908 -7479799.103 10 0 59201 58500.00000 0 5678726.929 -24410291.927 -4381894.217 10 0 59201 59400.00000 0 5668006.174 -24769958.838 -1198208.650 10 0 59201 60300.00000 0 5548716.386 -24741843.411 2008940.528 10 0 59201 61200.00000 0 5374313.294 -24315473.756 5176724.627 10 0 59201 62100.00000 0 5199619.407 -23493682.162 8243067.293 10 0 59201 63000.00000 0 5078236.505 -22292570.274 11147894.712 10 0 59201 63900.00000 0 5060016.951 -20740924.416 13834343.923 10 0 59201 64800.00000 0 5188705.085 -18879106.365 16249902.376 10 0 59201 65700.00000 0 5499852.111 -16757468.036 18347453.790 10 0 59201 66600.00000 0 6019095.284 -14434359.458 20086207.939 10 0 59201 67500.00000 0 6760875.605 -11973816.822 21432495.407 10 0 59201 68400.00000 0 7727648.374 -9443030.607 22360411.938 10 0 59201 69300.00000 0 8909618.955 -6909702.539 22852300.906 10 0 59201 70200.00000 0 10285013.023 -4439403.653 22899066.481 10 0 59201 71100.00000 0 11820867.441 -2093044.375 22500313.975 10 0 59201 72000.00000 0 13474305.809 75438.369 21664317.582 10 0 59201 72900.00000 0 15194242.528 2021082.660 20407819.285 10 0 59201 73800.00000 0 16923441.854 3709511.417 18755665.829 10 0 59201 74700.00000 0 18600844.229 5118087.471 16740293.536 10 0 59201 75600.00000 0 20164062.041 6236570.395 14401073.222 10 0 59201 76500.00000 0 21551940.865 7067252.474 11783529.499 10 0 59201 77400.00000 0 22707080.401 7624572.655 8938450.668 10 0 59201 78300.00000 0 23578211.846 7934228.589 5920906.708 10 0 59201 79200.00000 0 24122334.955 8031826.954 2789193.953 10 0 59201 80100.00000 0 24306528.317 7961130.540 -396274.035 10 0 59201 81000.00000 0 24109359.975 7771976.387 -3574109.536 10 0 59201 81900.00000 0 23521841.792 7517952.027 -6683107.649 10 0 59201 82800.00000 0 22547889.377 7253926.121 -9663397.015 10 0 59201 83700.00000 0 21204269.098 7033535.298 -12457564.678 10 0 59201 84600.00000 0 19520034.116 6906730.539 -15011735.910 10 0 59201 85500.00000 0 17535471.592 6917483.946 -17276590.523 10 0 59202 0.00000 0 15300602.668 7101750.387 -19208298.204 10 0 59202 900.00000 0 12873294.238 7485768.993 -20769356.730 10 0 59202 1800.00000 0 10317058.130 8084774.511 -21929317.424 10 0 59202 2700.00000 0 7698624.581 8902175.741 -22665384.913 10 0 59202 3600.00000 0 5085387.708 9929235.625 -22962878.768 10 0 59202 4500.00000 0 2542825.942 11145271.075 -22815546.995 10 0 59202 5400.00000 0 132002.316 12518367.576 -22225723.364 10 0 59202 6300.00000 0 -2092752.757 14006583.207 -21204322.863 10 0 59202 7200.00000 0 -4085879.849 15559595.916 -19770672.237 10 0 59202 8100.00000 0 -5812264.256 17120728.842 -17952175.486 10 0 59202 9000.00000 0 -7248473.495 18629271.693 -15783817.427 10 0 59202 9900.00000 0 -8383504.413 20023002.379 -13307511.901 10 0 59202 10800.00000 0 -9219006.085 21240803.253 -10571304.811 10 0 59202 11700.00000 0 -9768966.808 22225260.762 -7628445.822 10 0 59202 12600.00000 0 -10058876.534 22925136.581 -4536346.222 10 0 59202 13500.00000 0 -10124399.310 23297602.691 -1355443.700 10 0 59202 14400.00000 0 -10009612.070 23310142.159 1852002.315 10 0 59202 15300.00000 0 -9764885.806 22942031.363 5023158.712 10 0 59202 16200.00000 0 -9444501.491 22185337.522 8095882.617 10 0 59202 17100.00000 0 -9104105.313 21045386.659 11009972.987 10 0 59202 18000.00000 0 -8798115.094 19540680.688 13708381.672 10 0 59202 18900.00000 0 -8577191.930 17702266.823 16138357.018 10 0 59202 19800.00000 0 -8485887.941 15572586.769 18252494.946 10 0 59202 20700.00000 0 -8560572.647 13203856.183 20009674.967 10 0 59202 21600.00000 0 -8827727.610 10656045.089 21375862.015 10 0 59202 22500.00000 0 -9302682.076 7994546.903 22324758.516 10 0 59202 23400.00000 0 -9988842.438 5287636.501 22838295.027 10 0 59202 24300.00000 0 -10877446.354 2603825.713 22906951.810 10 0 59202 25200.00000 0 -11947849.453 9227.838 22529907.640 10 0 59202 26100.00000 0 -13168329.622 -2434958.840 21715015.889 10 0 59202 27000.00000 0 -14497372.083 -4674744.970 20478611.505 10 0 59202 27900.00000 0 -15885378.595 -6665328.490 18845155.614 10 0 59202 28800.00000 0 -17276726.940 -8372678.488 16846727.454 10 0 59202 29700.00000 0 -18612093.053 -9774662.960 14522375.734 10 0 59202 30600.00000 0 -19830938.174 -10861678.143 11917343.675 10 0 59202 31500.00000 0 -20874057.428 -11636757.833 9082183.824 10 0 59202 32400.00000 0 -21686084.608 -12115162.422 6071780.092 10 0 59202 33300.00000 0 -22217850.469 -12323468.429 2944295.580 10 0 59202 34200.00000 0 -22428498.352 -12298199.142 -239934.347 10 0 59202 35100.00000 0 -22287271.294 -12084055.209 -3419543.909 10 0 59202 36000.00000 0 -21774898.251 -11731819.648 -6533293.608 10 0 59202 36900.00000 0 -20884523.348 -11296024.352 -9521221.674 10 0 59202 37800.00000 0 -19622140.399 -10832474.456 -12325770.551 10 0 59202 38700.00000 0 -18006514.564 -10395732.270 -14892869.298 10 0 59202 39600.00000 0 -16068593.463 -10036664.055 -17172953.329 10 0 59202 40500.00000 0 -13850430.201 -9800150.390 -19121904.052 10 0 59202 41400.00000 0 -11403660.142 -9723054.561 -20701892.006 10 0 59202 42300.00000 0 -8787591.234 -9832533.342 -21882108.275 10 0 59202 43200.00000 0 -6066983.209 -10144761.223 -22639370.570 10 0 59202 44100.00000 0 -3309603.862 -10664122.893 -22958591.883 10 0 59202 45000.00000 0 -583660.357 -11382910.251 -22833101.474 10 0 59202 45900.00000 0 2044790.796 -12281539.966 -22264810.067 10 0 59202 46800.00000 0 4514349.447 -13329286.418 -21264213.399 10 0 59202 47700.00000 0 6770589.841 -14485503.408 -19850230.948 10 0 59202 48600.00000 0 8768094.210 -15701287.308 -18049879.571 10 0 59202 49500.00000 0 10472115.887 -16921515.093 -15897784.947 10 0 59202 50400.00000 0 11859800.246 -18087173.804 -13435537.269 10 0 59202 51300.00000 0 12920909.892 -19137884.375 -10710901.170 10 0 59202 52200.00000 0 13658021.087 -20014513.043 -7776893.528 10 0 59202 53100.00000 0 14086180.860 -20661758.358 -4690746.506 10 0 59202 54000.00000 0 14232037.850 -21030601.647 -1512776.406 10 0 59202 54900.00000 0 14132483.115 -21080513.588 1694818.162 10 0 59202 55800.00000 0 13832859.117 -20781319.556 4869202.814 10 0 59202 56700.00000 0 13384814.652 -20114640.869 7948171.214 10 0 59202 57600.00000 0 12843899.557 -19074847.656 10871397.940 10 0 59202 58500.00000 0 12267004.813 -17669480.691 13581652.235 10 0 59202 59400.00000 0 11709760.505 -15919123.186 16025945.586 10 0 59202 60300.00000 0 11224005.755 -13856727.960 18156587.959 10 0 59202 61200.00000 0 10855440.969 -11526429.601 19932130.023 10 0 59202 62100.00000 0 10641564.107 -8981893.619 21318172.033 10 0 59202 63000.00000 0 10609979.295 -6284274.465 22288023.623 10 0 59202 63900.00000 0 10777149.090 -3499870.765 22823202.613 10 0 59202 64800.00000 0 11147641.683 -697578.155 22913765.031 10 0 59202 65700.00000 0 11713902.436 2053752.290 22558462.432 10 0 59202 66600.00000 0 12456556.326 4687939.152 21764726.380 10 0 59202 67500.00000 0 13345225.254 7143970.537 20548483.539 10 0 59202 68400.00000 0 14339822.611 9368276.419 18933807.987 10 0 59202 69300.00000 0 15392267.906 11316681.709 16952420.285 10 0 59202 70200.00000 0 16448547.369 12955962.591 14643045.336 10 0 59202 71100.00000 0 17451032.908 14264945.717 12050643.167 10 0 59202 72000.00000 0 18340961.923 15235108.982 9225528.666 10 0 59202 72900.00000 0 19060974.783 15870663.315 6222397.689 10 0 59202 73800.00000 0 19557605.146 16188115.980 3099278.037 10 0 59202 74700.00000 0 19783620.932 16215336.653 -83575.261 10 0 59202 75600.00000 0 19700120.300 15990167.448 -3264820.522 10 0 59202 76500.00000 0 19278297.265 15558635.941 -6383185.811 10 0 59202 77400.00000 0 18500805.093 14972845.826 -9378621.024 10 0 59202 78300.00000 0 17362661.783 14288632.435 -12193426.008 10 0 59202 79200.00000 0 15871660.232 13563079.415 -14773335.463 10 0 59202 80100.00000 0 14048265.374 12851998.313 -17068542.129 10 0 59202 81000.00000 0 11925000.855 12207474.279 -19034640.692 10 0 59202 81900.00000 0 9545348.052 11675578.581 -20633475.985 10 0 59202 82800.00000 0 6962199.744 11294342.276 -21833880.203 10 0 59202 83700.00000 0 4235928.660 11092075.287 -22612285.398 10 0 59202 84600.00000 0 1432146.758 11086101.714 -22953199.130 10 0 59202 85500.00000 0 -1380755.657 11281965.896 -22849532.883 10 0 59203 0.00000 0 -4134192.426 11673144.929 -22302775.083 10 0 59203 900.00000 0 -6761981.094 12241283.307 -21323002.567 10 0 59203 1800.00000 0 -9202853.061 12956942.725 -19928727.611 10 0 59203 2700.00000 0 -11402769.879 13780840.761 -18146579.518 10 0 59203 3600.00000 0 -13316949.274 14665528.397 -16010824.017 10 0 59203 4500.00000 0 -14911513.666 15557439.327 -13562726.434 10 0 59203 5400.00000 0 -16164690.281 16399225.880 -10849768.550 10 0 59203 6300.00000 0 -17067509.680 17132283.315 -7924732.578 10 0 59203 7200.00000 0 -17623970.691 17699354.699 -4844669.414 10 0 59203 8100.00000 0 -17850662.778 18047103.818 -1669771.609 10 0 59203 9000.00000 0 -17775860.584 18128543.828 1537825.587 10 0 59203 9900.00000 0 -17438128.817 17905214.838 4715289.216 10 0 59203 10800.00000 0 -16884497.719 17349014.051 7800352.293 10 0 59203 11700.00000 0 -16168288.640 16443597.168 10732567.928 10 0 59203 12600.00000 0 -15346685.040 15185288.729 13454525.699 10 0 59203 13500.00000 0 -14478155.574 13583460.863 15913003.142 10 0 59203 14400.00000 0 -13619842.207 11660363.690 18060027.080 10 0 59203 15300.00000 0 -12825027.431 9450414.934 19853821.960 10 0 59203 16200.00000 0 -12140790.367 6998980.125 21259625.712 10 0 59203 17100.00000 0 -11605952.425 4360696.741 22250357.188 10 0 59203 18000.00000 0 -11249399.564 1597415.187 22807123.093 10 0 59203 18900.00000 0 -11088850.992 -1224154.799 22919556.398 10 0 59203 19800.00000 0 -11130124.011 -4034992.014 22585982.145 10 0 59203 20700.00000 0 -11366923.012 -6766398.385 21813410.296 10 0 59203 21600.00000 0 -11781157.888 -9352610.400 20617358.957 10 0 59203 22500.00000 0 -12343774.800 -11733279.731 19021514.394 10 0 59203 23400.00000 0 -13016060.891 -13855721.858 17057237.282 10 0 59203 24300.00000 0 -13751365.276 -15676842.378 14762927.090 10 0 59203 25200.00000 0 -14497161.966 -17164664.700 12183258.673 10 0 59203 26100.00000 0 -15197367.057 -18299399.812 9368306.994 10 0 59203 27000.00000 0 -15794812.881 -19074017.909 6372577.360 10 0 59203 27900.00000 0 -16233776.180 -19494302.147 3253959.602 10 0 59203 28800.00000 0 -16462455.879 -19578385.611 72625.626 10 0 59203 29700.00000 0 -16435298.685 -19355793.396 -3110109.870 10 0 59203 30600.00000 0 -16115077.295 -18866031.262 -6232945.464 10 0 59203 31500.00000 0 -15474636.300 -18156780.199 -9235745.736 10 0 59203 32400.00000 0 -14498234.288 -17281771.723 -12060670.941 10 0 59203 33300.00000 0 -13182426.843 -16298431.179 -14653264.408 10 0 59203 34200.00000 0 -11536453.387 -15265385.448 -16963479.070 10 0 59203 35100.00000 0 -9582110.484 -14239936.808 -18946625.569 10 0 59203 36000.00000 0 -7353114.494 -13275606.168 -20564225.409 10 0 59203 36900.00000 0 -4893976.876 -12419846.377 -21784753.878 10 0 59203 37800.00000 0 -2258434.891 -11712019.898 -22584258.893 10 0 59203 38700.00000 0 492501.522 -11181725.000 -22946843.590 10 0 59203 39600.00000 0 3292809.932 -10847541.141 -22865002.173 10 0 59203 40500.00000 0 6073932.872 -10716247.671 -22339800.712 10 0 59203 41400.00000 0 8767373.029 -10782551.172 -21380896.775 10 0 59203 42300.00000 0 11307300.502 -11029336.026 -20006394.469 10 0 59203 43200.00000 0 13633064.795 -11428431.208 -18242534.269 10 0 59203 44100.00000 0 15691506.748 -11941864.437 -16123220.257 10 0 59203 45000.00000 0 17438972.533 -12523553.758 -13689390.813 10 0 59203 45900.00000 0 18842943.317 -13121367.190 -10988242.386 10 0 59203 46800.00000 0 19883209.549 -13679464.303 -8072319.661 10 0 59203 47700.00000 0 20552537.568 -14140820.181 -4998489.064 10 0 59203 48600.00000 0 20856797.939 -14449823.148 -1826815.925 10 0 59203 49500.00000 0 20814548.191 -14554833.247 1380631.495 10 0 59203 50400.00000 0 20456086.702 -14410589.298 4561025.342 10 0 59203 51300.00000 0 19822018.055 -13980358.308 7652041.551 10 0 59203 52200.00000 0 18961392.142 -13237732.063 10593115.110 10 0 59203 53100.00000 0 17929498.357 -12167991.226 13326658.927 10 0 59203 54000.00000 0 16785411.657 -10768976.517 15799219.163 10 0 59203 54900.00000 0 15589398.009 -9051428.548 17962541.582 10 0 59203 55800.00000 0 14400292.589 -7038781.675 19774525.991 10 0 59203 56700.00000 0 13272964.546 -4766421.261 21200049.058 10 0 59203 57600.00000 0 12255977.439 -2280437.276 22211639.408 10 0 59203 58500.00000 0 11389544.922 364071.180 22789992.694 10 0 59203 59400.00000 0 10703867.336 3105066.946 22924318.431 10 0 59203 60300.00000 0 10217917.503 5875932.720 22612514.314 10 0 59203 61200.00000 0 9938723.985 8608015.624 21861167.504 10 0 59203 62100.00000 0 9861178.299 11233251.629 20685386.015 10 0 59203 63000.00000 0 9968370.185 13686760.823 19108466.503 10 0 59203 63900.00000 0 10232432.835 15909306.801 17161407.751 10 0 59203 64800.00000 0 10615858.951 17849520.339 14882281.636 10 0 59203 65700.00000 0 11073229.458 19465798.094 12315475.556 10 0 59203 66600.00000 0 11553280.297 20727801.117 9510822.192 10 0 59203 67500.00000 0 12001219.596 21617494.936 6522633.873 10 0 59203 68400.00000 0 12361198.013 22129691.883 3408660.010 10 0 59203 69300.00000 0 12578829.564 22272076.587 228986.935 10 0 59203 70200.00000 0 12603658.860 22064716.426 -2955100.033 10 0 59203 71100.00000 0 12391473.285 21539079.236 -6082272.289 10 0 59203 72000.00000 0 11906365.349 20736600.085 -9092311.237 10 0 59203 72900.00000 0 11122460.610 19706856.709 -11927239.508 10 0 59203 73800.00000 0 10025240.031 18505428.556 -14532410.808 10 0 59203 74700.00000 0 8612401.807 17191526.860 -16857539.807 10 0 59203 75600.00000 0 6894225.920 15825492.200 -18857654.440 10 0 59203 76500.00000 0 4893424.327 14466261.363 -20493954.060 10 0 59203 77400.00000 0 2644480.184 13168906.818 -21734558.065 10 0 59203 78300.00000 0 192499.764 11982349.545 -22555131.116 10 0 59203 79200.00000 0 -2408379.509 10947339.540 -22939372.638 10 0 59203 80100.00000 0 -5096963.341 10094788.122 -22879360.062 10 0 59203 81000.00000 0 -7807279.535 9444522.547 -22375737.368 10 0 59203 81900.00000 0 -10471070.862 9004516.755 -21437742.727 10 0 59203 82800.00000 0 -13020401.055 8770633.051 -20083071.645 10 0 59203 83700.00000 0 -15390267.312 8726888.577 -18337574.907 10 0 59203 84600.00000 0 -17521110.994 8846238.540 -16234793.713 10 0 59203 85500.00000 0 -19361120.861 9091846.209 -13815337.914 10 0 59204 0.00000 0 -20868230.773 9418788.348 -11126116.848 10 0 59204 900.00000 0 -22011725.240 9776125.319 -8219435.482 10 0 59204 1800.00000 0 -22773383.047 10109248.603 -5151973.624 10 0 59204 2700.00000 0 -23148106.355 10362404.630 -1983667.051 10 0 59204 3600.00000 0 -23144008.000 10481286.100 1223485.395 10 0 59204 4500.00000 0 -22781950.238 10415577.014 4406663.470 10 0 59204 5400.00000 0 -22094554.558 10121339.670 7503488.622 10 0 59204 6300.00000 0 -21124724.946 9563138.029 10453280.350 10 0 59204 7200.00000 0 -19923748.973 8715803.589 13198277.557 10 0 59204 8100.00000 0 -18549059.889 7565765.652 15684797.631 10 0 59204 9000.00000 0 -17061757.765 6111887.446 17864307.769 10 0 59204 9900.00000 0 -15523998.032 4365771.748 19694385.403 10 0 59204 10800.00000 0 -13996360.919 2351523.160 21139547.911 10 0 59204 11700.00000 0 -12535315.218 104978.171 22171935.298 10 0 59204 12600.00000 0 -11190884.671 -2327562.695 22771833.350 10 0 59204 13500.00000 0 -10004615.290 -4891045.173 22928028.880 10 0 59204 14400.00000 0 -9007927.818 -7523740.071 22637992.543 10 0 59204 15300.00000 0 -8220922.123 -10159601.666 21907888.576 10 0 59204 16200.00000 0 -7651680.226 -12730805.945 20752414.367 10 0 59204 17100.00000 0 -7296093.089 -15170362.516 19194476.052 10 0 59204 18000.00000 0 -7138214.096 -17414691.918 17264709.264 10 0 59204 18900.00000 0 -7151120.133 -19406062.749 15000856.722 10 0 59204 19800.00000 0 -7298240.481 -21094789.763 12447016.549 10 0 59204 20700.00000 0 -7535094.878 -22441104.683 9652777.109 10 0 59204 21600.00000 0 -7811365.944 -23416625.595 6672255.571 10 0 59204 22500.00000 0 -8073218.196 -24005367.538 3563058.625 10 0 59204 23400.00000 0 -8265766.586 -24204255.694 385184.645 10 0 59204 24300.00000 0 -8335592.032 -24023122.823 -2800112.905 10 0 59204 25200.00000 0 -8233200.148 -23484193.206 -5931480.767 10 0 59204 26100.00000 0 -7915322.010 -22621075.797 -8948619.789 10 0 59204 27000.00000 0 -7346962.502 -21477308.733 -11793417.637 10 0 59204 27900.00000 0 -6503111.905 -20104514.973 -14411041.086 10 0 59204 28800.00000 0 -5370049.959 -18560244.262 -16750969.195 10 0 59204 29700.00000 0 -3946187.692 -16905588.929 -18767949.728 10 0 59204 30600.00000 0 -2242410.581 -15202670.133 -20422862.211 10 0 59204 31500.00000 0 -281906.414 -13512096.555 -21683472.183 10 0 59204 32400.00000 0 1900518.378 -11890498.945 -22525062.703 10 0 59204 33300.00000 0 4259609.622 -10388241.401 -22930930.721 10 0 59204 34200.00000 0 6741279.353 -9047403.852 -22892737.689 10 0 59204 35100.00000 0 9284600.363 -7900119.832 -22410705.857 10 0 59204 36000.00000 0 11824102.726 -6967339.957 -21493653.929 10 0 59204 36900.00000 0 14292280.185 -6258074.657 -20158868.343 10 0 59204 37800.00000 0 16622204.562 -5769150.434 -18431809.308 10 0 59204 38700.00000 0 18750140.391 -5485492.687 -16345653.845 10 0 59204 39600.00000 0 20618050.400 -5380926.128 -13940681.536 10 0 59204 40500.00000 0 22175885.649 -5419461.482 -11263512.269 10 0 59204 41400.00000 0 23383561.962 -5557015.772 -8366208.878 10 0 59204 42300.00000 0 24212536.485 -5743494.126 -5305261.333 10 0 59204 43200.00000 0 24646914.792 -5925144.246 -2140472.417 10 0 59204 44100.00000 0 24684038.780 -6047081.882 1066232.131 10 0 59204 45000.00000 0 24334528.110 -6055877.220 4252043.456 10 0 59204 45900.00000 0 23621772.052 -5902088.630 7354532.248 10 0 59204 46800.00000 0 22580893.021 -5542632.054 10312906.058 10 0 59204 47700.00000 0 21257226.661 -4942881.402 13069233.005 10 0 59204 48600.00000 0 19704384.898 -4078407.230 15569604.533 10 0 59204 49500.00000 0 17981986.795 -2936277.238 17765211.633 10 0 59204 50400.00000 0 16153156.391 -1515861.858 19613311.246 10 0 59204 51300.00000 0 14281896.434 170889.616 21078062.843 10 0 59204 52200.00000 0 12430451.433 2099713.495 22131218.692 10 0 59204 53100.00000 0 10656772.958 4234824.035 22752655.114 10 0 59204 54000.00000 0 9012194.424 6530198.290 22930736.123 10 0 59204 54900.00000 0 7539412.332 8931297.242 22662504.774 10 0 59204 55800.00000 0 6270856.758 11377148.827 21953701.355 10 0 59204 56700.00000 0 5227516.256 13802704.056 20818611.198 10 0 59204 57600.00000 0 4418262.398 16141366.832 19279748.114 10 0 59204 58500.00000 0 3839697.819 18327591.804 17367382.467 10 0 59204 59400.00000 0 3476529.458 20299442.907 15118925.462 10 0 59204 60300.00000 0 3302447.091 22001007.898 12578183.408 10 0 59204 61200.00000 0 3281466.696 23384570.872 9794497.672 10 0 59204 62100.00000 0 3369679.564 24412455.572 6821787.510 10 0 59204 63000.00000 0 3517332.145 25058466.156 3717514.087 10 0 59204 63900.00000 0 3671148.807 25308868.811 541585.022 10 0 59204 64800.00000 0 3776800.484 25162876.347 -2644780.795 10 0 59204 65700.00000 0 3781416.877 24632617.952 -5780208.070 10 0 59204 66600.00000 0 3636038.607 23742596.838 -8804319.515 10 0 59204 67500.00000 0 3297908.458 22528658.878 -11658870.037 10 0 59204 68400.00000 0 2732507.426 21036514.592 -14288841.421 10 0 59204 69300.00000 0 1915251.613 19319874.566 -16643478.787 10 0 59204 70200.00000 0 832779.374 17438273.628 -18677251.140 10 0 59204 71100.00000 0 -516225.697 15454671.484 -20350719.351 10 0 59204 72000.00000 0 -2120711.977 13432926.683 -21631296.054 10 0 59204 72900.00000 0 -3957453.486 11435246.093 -22493883.438 10 0 59204 73800.00000 0 -5991755.722 9519713.527 -22921376.480 10 0 59204 74700.00000 0 -8178648.549 7737998.729 -22905020.891 10 0 59204 75600.00000 0 -10464521.189 6133341.279 -22444617.107 10 0 59204 76500.00000 0 -12789135.765 4738893.659 -21548563.921 10 0 59204 77400.00000 0 -15087939.499 3576493.833 -20233737.855 10 0 59204 78300.00000 0 -17294582.277 2655920.596 -18525207.297 10 0 59204 79200.00000 0 -19343536.439 1974665.384 -16455783.447 10 0 59204 80100.00000 0 -21172709.783 1518232.856 -14065413.657 10 0 59204 81000.00000 0 -22725941.632 1260960.104 -11400426.212 10 0 59204 81900.00000 0 -23955275.270 1167321.885 -8512639.287 10 0 59204 82800.00000 0 -24822908.286 1193667.825 -5458350.558 10 0 59204 83700.00000 0 -25302735.364 1290317.984 -2297227.220 10 0 59204 84600.00000 0 -25381414.975 1403926.701 908880.726 10 0 59204 85500.00000 0 -25058911.912 1480011.991 4097178.489 99